Year,Month,Day,Hour,Minute,Value (Times are PST for temperature in C)
2017,10,14,08,15,0.60
2017,10,14,08,16,0.60
2017,10,14,08,17,0.60
2017,10,14,08,18,0.60
2017,10,14,08,19,0.60
2017,10,14,08,20,0.60
2017,10,14,08,21,0.60
2017,10,14,08,22,0.60
2017,10,14,08,23,0.70
2017,10,14,08,24,0.70
2017,10,14,08,25,0.70
2017,10,14,08,26,0.70
2017,10,14,08,27,0.70
2017,10,14,08,28,0.70
2017,10,14,08,29,0.70
2017,10,14,08,30,0.70
2017,10,14,08,31,0.70
2017,10,14,08,32,0.70
2017,10,14,08,33,0.70
2017,10,14,08,34,0.70
2017,10,14,08,35,0.70
2017,10,14,08,36,0.70
2017,10,14,08,37,0.70
2017,10,14,08,38,0.70
2017,10,14,08,39,0.70
2017,10,14,08,40,0.70
2017,10,14,08,41,0.70
2017,10,14,08,42,0.70
2017,10,14,08,43,0.70
2017,10,14,08,44,0.70
2017,10,14,08,45,0.70
2017,10,14,08,46,0.70
2017,10,14,08,47,0.70
2017,10,14,08,48,0.70
2017,10,14,08,49,0.70
2017,10,14,08,50,0.70
2017,10,14,08,51,0.70
2017,10,14,08,52,0.70
2017,10,14,08,53,0.70
2017,10,14,08,54,0.70
2017,10,14,08,55,0.80
2017,10,14,08,56,0.80
2017,10,14,08,57,0.80
2017,10,14,08,58,0.80
2017,10,14,08,59,0.80
2017,10,14,09,00,0.80
2017,10,14,09,01,0.80
2017,10,14,09,02,0.80
2017,10,14,09,03,0.80
2017,10,14,09,04,0.90
2017,10,14,09,05,0.90
2017,10,14,09,06,0.90
2017,10,14,09,07,0.90
2017,10,14,09,08,0.90
2017,10,14,09,09,0.90
2017,10,14,09,10,0.90
2017,10,14,09,11,0.90
2017,10,14,09,12,0.90
2017,10,14,09,13,0.90
2017,10,14,09,14,0.90
2017,10,14,09,15,0.90
2017,10,14,09,16,0.90
2017,10,14,09,17,0.90
2017,10,14,09,18,0.90
2017,10,14,09,19,0.90
2017,10,14,09,20,0.90
2017,10,14,09,21,0.90
2017,10,14,09,22,0.90
2017,10,14,09,23,0.90
2017,10,14,09,24,0.90
2017,10,14,09,25,0.90
2017,10,14,09,26,0.90
2017,10,14,09,27,0.90
2017,10,14,09,28,0.90
2017,10,14,09,29,0.90
2017,10,14,09,30,0.90
2017,10,14,09,31,0.90
2017,10,14,09,32,0.90
2017,10,14,09,33,0.90
2017,10,14,09,34,0.90
2017,10,14,09,35,0.90
2017,10,14,09,36,0.90
2017,10,14,09,37,0.90
2017,10,14,09,38,0.90
2017,10,14,09,39,0.90
2017,10,14,09,40,0.90
2017,10,14,09,41,0.90
2017,10,14,09,42,0.90
2017,10,14,09,43,0.90
2017,10,14,16,04,3.20
2017,10,14,16,05,3.20
2017,10,14,16,06,3.20
2017,10,14,16,07,3.20
2017,10,14,16,08,3.20
2017,10,14,16,09,3.20
2017,10,14,16,10,3.20
2017,10,14,16,11,3.20
2017,10,14,16,12,3.20
2017,10,14,16,13,3.10
2017,10,14,16,14,3.10
2017,10,14,16,15,3.10
2017,10,14,16,16,3.10
2017,10,14,16,17,3.10
2017,10,14,16,18,3.10
2017,10,14,16,19,3.10
2017,10,14,16,20,3.10
2017,10,14,16,21,3.10
2017,10,14,16,22,3.10
2017,10,14,16,23,3.20
2017,10,14,16,24,3.20
2017,10,14,16,25,3.20
2017,10,14,16,26,3.20
2017,10,14,16,27,3.20
2017,10,14,16,28,3.20
2017,10,14,16,29,3.20
2017,10,14,16,30,3.20
2017,10,14,16,31,3.20
2017,10,14,16,32,3.20
2017,10,14,16,33,3.20
2017,10,14,16,34,3.20
2017,10,14,16,35,3.20
2017,10,14,16,36,3.20
2017,10,14,16,37,3.20
2017,10,14,16,38,3.20
2017,10,14,16,39,3.20
2017,10,14,16,40,3.20
2017,10,14,16,41,3.20
2017,10,14,16,42,3.20
2017,10,14,16,43,3.20
2017,10,14,16,44,3.20
2017,10,14,16,45,3.20
2017,10,14,16,46,3.20
2017,10,14,16,47,3.20
2017,10,14,16,48,3.20
2017,10,14,16,49,3.20
2017,10,14,16,50,3.20
2017,10,14,16,51,3.20
2017,10,14,16,52,3.20
2017,10,14,16,53,3.10
2017,10,14,16,54,3.10
2017,10,14,16,55,3.10
2017,10,14,16,56,3.10
2017,10,14,16,57,3.10
2017,10,14,16,58,3.10
2017,10,14,16,59,3.10
2017,10,14,17,00,3.10
2017,10,14,17,01,3.10
2017,10,14,17,02,3.10
2017,10,14,17,03,3.20
2017,10,14,17,04,3.20
2017,10,14,17,05,3.20
2017,10,14,17,06,3.20
2017,10,14,17,07,3.20
2017,10,14,17,08,3.20
2017,10,14,17,09,3.20
2017,10,14,17,10,3.20
2017,10,14,17,11,3.20
2017,10,14,17,12,3.20
2017,10,14,17,13,3.20
2017,10,14,17,14,3.10
2017,10,14,17,15,3.10
2017,10,14,17,16,3.10
2017,10,14,17,17,3.10
2017,10,14,17,18,3.10
2017,10,14,17,19,3.10
2017,10,14,17,20,3.10
2017,10,14,17,21,3.10
2017,10,14,17,22,3.10
2017,10,14,17,23,3.10
2017,10,14,17,24,3.20
2017,10,14,17,25,3.20
2017,10,14,17,26,3.20
2017,10,14,17,27,3.20
2017,10,14,17,28,3.20
2017,10,14,17,29,3.20
2017,10,14,17,30,3.20
2017,10,14,17,31,3.20
2017,10,14,17,32,3.20
2017,10,14,17,33,3.10
2017,10,14,17,34,3.10
2017,10,14,17,35,3.10
2017,10,14,17,36,3.10
2017,10,14,17,37,3.10
2017,10,14,17,38,3.10
2017,10,14,17,39,3.10
2017,10,14,17,40,3.10
2017,10,14,17,41,3.10
2017,10,14,17,42,3.10
2017,10,14,17,43,3.10
2017,10,14,17,44,3.10
2017,10,14,17,45,3.10
2017,10,14,17,46,3.10
2017,10,14,17,47,3.10
2017,10,14,17,48,3.10
2017,10,14,17,49,3.10
2017,10,14,17,50,3.10
2017,10,14,17,51,3.10
2017,10,14,17,52,3.10
2017,10,14,17,53,3.10
2017,10,14,17,54,3.10
2017,10,14,17,55,3.10
2017,10,14,17,56,3.10
2017,10,14,17,57,3.10
2017,10,14,17,58,3.10
2017,10,14,17,59,3.10
2017,10,14,18,00,3.10
2017,10,14,18,01,3.10
2017,10,14,18,02,3.10
2017,10,14,18,03,3.10
2017,10,14,18,04,2.90
2017,10,14,18,05,2.90
2017,10,14,18,06,2.90
2017,10,14,18,07,2.90
2017,10,14,18,08,2.90
2017,10,14,18,09,2.90
2017,10,14,18,10,2.90
2017,10,14,18,11,2.90
2017,10,14,18,12,2.90
2017,10,14,18,13,2.90
2017,10,14,18,14,2.80
2017,10,14,18,15,2.80
2017,10,14,18,16,2.80
2017,10,14,18,17,2.80
2017,10,14,18,18,2.80
2017,10,14,18,19,2.80
2017,10,14,18,20,2.80
2017,10,14,18,21,2.80
2017,10,14,18,22,2.80
2017,10,14,18,23,2.80
2017,10,14,18,24,2.80
2017,10,14,18,25,2.80
2017,10,14,18,26,2.80
2017,10,14,18,27,2.80
2017,10,14,18,28,2.80
2017,10,14,18,29,2.80
2017,10,14,18,30,2.80
2017,10,14,18,31,2.80
2017,10,14,18,32,2.80
2017,10,14,18,33,2.80
2017,10,14,18,34,2.80
2017,10,14,18,35,2.80
2017,10,14,18,36,2.80
2017,10,14,18,37,2.80
2017,10,14,18,38,2.80
2017,10,14,18,39,2.80
2017,10,14,18,40,2.80
2017,10,14,18,41,2.80
2017,10,14,18,42,2.80
2017,10,14,18,43,2.80
2017,10,14,18,44,2.80
2017,10,14,18,45,2.80
2017,10,14,18,46,2.80
2017,10,14,18,47,2.80
2017,10,14,18,48,2.80
2017,10,14,18,49,2.80
2017,10,14,18,50,2.80
2017,10,14,18,51,2.80
2017,10,14,18,52,2.80
2017,10,14,18,53,2.80
2017,10,14,18,54,2.80
2017,10,14,18,55,2.80
2017,10,14,18,56,2.80
2017,10,14,18,57,2.80
2017,10,14,18,58,2.80
2017,10,14,18,59,2.80
2017,10,14,19,00,2.80
2017,10,14,19,01,2.80
2017,10,14,19,02,2.80
2017,10,14,19,03,2.80
2017,10,14,19,04,2.80
2017,10,14,19,05,2.90
2017,10,14,19,06,2.90
2017,10,14,19,07,2.90
2017,10,14,19,08,2.90
2017,10,14,19,09,2.90
2017,10,14,19,10,2.90
2017,10,14,19,11,2.90
2017,10,14,19,12,2.90
2017,10,14,19,13,2.90
2017,10,14,19,14,2.90
2017,10,14,19,15,2.90
2017,10,14,19,16,2.90
2017,10,14,19,17,2.90
2017,10,14,19,18,2.90
2017,10,14,19,19,2.90
2017,10,14,19,20,2.90
2017,10,14,19,21,2.90
2017,10,14,19,22,2.90
2017,10,14,19,23,2.90
2017,10,14,19,24,2.90
2017,10,14,19,25,2.90
2017,10,14,19,26,2.90
2017,10,14,19,27,2.90
2017,10,14,19,28,2.90
2017,10,14,19,29,2.90
2017,10,14,19,30,2.90
2017,10,14,19,31,2.90
2017,10,14,19,32,2.90
2017,10,14,19,33,2.90
2017,10,14,19,34,2.80
2017,10,14,19,35,2.80
2017,10,14,19,36,2.80
2017,10,14,19,37,2.80
2017,10,14,19,38,2.80
2017,10,14,19,39,2.80
2017,10,14,19,40,2.80
2017,10,14,19,41,2.80
2017,10,14,19,42,2.80
2017,10,14,19,43,2.80
2017,10,14,19,44,2.90
2017,10,14,19,45,2.90
2017,10,14,19,46,2.90
2017,10,14,19,47,2.90
2017,10,14,19,48,2.90
2017,10,14,19,49,2.90
2017,10,14,19,50,2.90
2017,10,14,19,51,2.90
2017,10,14,19,52,2.90
2017,10,14,19,53,2.90
2017,10,14,19,54,2.90
2017,10,14,19,55,2.90
2017,10,14,19,56,2.90
2017,10,14,19,57,2.90
2017,10,14,19,58,2.90
2017,10,14,19,59,2.90
2017,10,14,20,00,2.90
2017,10,14,20,01,2.90
2017,10,14,20,02,2.90
2017,10,14,20,03,2.90
2017,10,14,20,04,2.90
2017,10,14,20,05,2.90
2017,10,14,20,06,2.90
2017,10,14,20,07,2.90
2017,10,14,20,08,2.90
2017,10,14,20,09,2.90
2017,10,14,20,10,2.90
2017,10,14,20,11,2.90
2017,10,14,20,12,2.90
2017,10,14,20,13,3.00
2017,10,14,20,14,3.00
2017,10,14,20,15,3.00
2017,10,14,20,16,3.00
2017,10,14,20,17,3.00
2017,10,14,20,18,3.00
2017,10,14,20,19,3.00
2017,10,14,20,20,3.00
2017,10,14,20,21,3.00
2017,10,14,20,22,3.00
2017,10,14,20,23,2.90
2017,10,14,20,24,2.90
2017,10,14,20,25,2.90
2017,10,14,20,26,2.90
2017,10,14,20,27,2.90
2017,10,14,20,28,2.90
2017,10,14,20,29,2.90
2017,10,14,20,30,2.90
2017,10,14,20,31,2.90
2017,10,14,20,32,2.90
2017,10,14,20,33,2.90
2017,10,14,20,34,2.80
2017,10,14,20,35,2.80
2017,10,14,20,36,2.80
2017,10,14,20,37,2.80
2017,10,14,20,38,2.80
2017,10,14,20,39,2.80
2017,10,14,20,40,2.80
2017,10,14,20,41,2.80
2017,10,14,20,42,2.80
2017,10,14,20,43,2.80
2017,10,14,20,44,2.80
2017,10,14,20,45,2.80
2017,10,14,20,46,2.80
2017,10,14,20,47,2.80
2017,10,14,20,48,2.80
2017,10,14,20,49,2.80
2017,10,14,20,50,2.80
2017,10,14,20,51,2.80
2017,10,14,20,52,2.80
2017,10,14,20,53,2.80
2017,10,14,20,54,2.80
2017,10,14,20,55,2.80
2017,10,14,20,56,2.80
2017,10,14,20,57,2.80
2017,10,14,20,58,2.80
2017,10,14,20,59,2.80
2017,10,14,21,00,2.80
2017,10,14,21,01,2.80
2017,10,14,21,02,2.80
2017,10,14,21,03,2.80
2017,10,14,21,04,2.80
2017,10,14,21,05,2.80
2017,10,14,21,06,2.80
2017,10,14,21,07,2.80
2017,10,14,21,08,2.80
2017,10,14,21,09,2.80
2017,10,14,21,10,2.80
2017,10,14,21,11,2.80
2017,10,14,21,12,2.80
2017,10,14,21,13,2.80
2017,10,14,21,14,2.80
2017,10,14,21,15,2.90
2017,10,14,21,16,2.90
2017,10,14,21,17,2.90
2017,10,14,21,18,2.90
2017,10,14,21,19,2.90
2017,10,14,21,20,2.90
2017,10,14,21,21,2.90
2017,10,14,21,22,2.90
2017,10,14,21,23,3.00
2017,10,14,21,24,3.00
2017,10,14,21,25,3.00
2017,10,14,21,26,3.00
2017,10,14,21,27,3.00
2017,10,14,21,28,3.00
2017,10,14,21,29,3.00
2017,10,14,21,30,3.00
2017,10,14,21,31,3.00
2017,10,14,21,32,3.00
2017,10,14,21,33,3.00
2017,10,14,21,34,3.00
2017,10,14,21,35,3.00
2017,10,14,21,36,3.00
2017,10,14,21,37,3.00
2017,10,14,21,38,3.00
2017,10,14,21,39,3.00
2017,10,14,21,40,3.00
2017,10,14,21,41,3.00
2017,10,14,21,42,3.00
2017,10,14,21,43,3.00
2017,10,14,21,44,3.10
2017,10,14,21,45,3.10
2017,10,14,21,46,3.10
2017,10,14,21,47,3.10
2017,10,14,21,48,3.10
2017,10,14,21,49,3.10
2017,10,14,21,50,3.10
2017,10,14,21,51,3.10
2017,10,14,21,52,3.10
2017,10,14,21,53,3.10
2017,10,14,21,54,3.20
2017,10,14,21,55,3.20
2017,10,14,21,56,3.20
2017,10,14,21,57,3.20
2017,10,14,21,58,3.20
2017,10,14,21,59,3.20
2017,10,14,22,00,3.20
2017,10,14,22,01,3.20
2017,10,14,22,02,3.20
2017,10,14,22,03,3.20
2017,10,14,22,04,3.20
2017,10,14,22,05,3.20
2017,10,14,22,06,3.20
2017,10,14,22,07,3.20
2017,10,14,22,08,3.20
2017,10,14,22,09,3.20
2017,10,14,22,10,3.20
2017,10,14,22,11,3.20
2017,10,14,22,12,3.20
2017,10,14,22,13,3.20
2017,10,14,22,14,3.30
2017,10,14,22,15,3.30
2017,10,14,22,16,3.30
2017,10,14,22,17,3.30
2017,10,14,22,18,3.30
2017,10,14,22,19,3.30
2017,10,14,22,20,3.30
2017,10,14,22,21,3.30
2017,10,14,22,22,3.30
2017,10,14,22,23,3.30
2017,10,14,22,24,3.30
2017,10,14,22,25,3.30
2017,10,14,22,26,3.30
2017,10,14,22,27,3.30
2017,10,14,22,28,3.30
2017,10,14,22,29,3.30
2017,10,14,22,30,3.30
2017,10,14,22,31,3.30
2017,10,14,22,32,3.30
2017,10,14,22,33,3.30
2017,10,14,22,34,3.30
2017,10,14,22,35,3.30
2017,10,14,22,36,3.30
2017,10,14,22,37,3.30
2017,10,14,22,38,3.30
2017,10,14,22,39,3.30
2017,10,14,22,40,3.30
2017,10,14,22,41,3.30
2017,10,14,22,42,3.30
2017,10,14,22,43,3.30
2017,10,14,22,44,3.30
2017,10,14,22,45,3.40
2017,10,14,22,46,3.40
2017,10,14,22,47,3.40
2017,10,14,22,48,3.40
2017,10,14,22,49,3.40
2017,10,14,22,50,3.40
2017,10,14,22,51,3.40
2017,10,14,22,52,3.40
2017,10,14,22,53,3.50
2017,10,14,22,54,3.50
2017,10,14,22,55,3.50
2017,10,14,22,56,3.50
2017,10,14,22,57,3.50
2017,10,14,22,58,3.50
2017,10,14,22,59,3.50
2017,10,14,23,00,3.50
2017,10,14,23,01,3.50
2017,10,14,23,02,3.50
2017,10,14,23,03,3.40
2017,10,14,23,04,3.40
2017,10,14,23,05,3.40
2017,10,14,23,06,3.40
2017,10,14,23,07,3.40
2017,10,14,23,08,3.40
2017,10,14,23,09,3.40
2017,10,14,23,10,3.40
2017,10,14,23,11,3.40
2017,10,14,23,12,3.40
2017,10,14,23,13,3.40
2017,10,14,23,14,3.40
2017,10,14,23,15,3.40
2017,10,14,23,16,3.40
2017,10,14,23,17,3.40
2017,10,14,23,18,3.40
2017,10,14,23,19,3.40
2017,10,14,23,20,3.40
2017,10,14,23,21,3.40
2017,10,14,23,22,3.40
2017,10,14,23,23,3.40
2017,10,14,23,24,3.60
2017,10,14,23,25,3.60
2017,10,14,23,26,3.60
2017,10,14,23,27,3.60
2017,10,14,23,28,3.60
2017,10,14,23,29,3.60
2017,10,14,23,30,3.60
2017,10,14,23,31,3.60
2017,10,14,23,32,3.60
2017,10,14,23,33,3.70
2017,10,14,23,34,3.70
2017,10,14,23,35,3.70
2017,10,14,23,36,3.70
2017,10,14,23,37,3.70
2017,10,14,23,38,3.70
2017,10,14,23,39,3.70
2017,10,14,23,40,3.70
2017,10,14,23,41,3.70
2017,10,14,23,42,3.70
2017,10,14,23,43,3.70
2017,10,14,23,44,3.70
2017,10,14,23,45,3.70
2017,10,14,23,46,3.70
2017,10,14,23,47,3.70
2017,10,14,23,48,3.70
2017,10,14,23,49,3.70
2017,10,14,23,50,3.70
2017,10,14,23,51,3.70
2017,10,14,23,52,3.70
2017,10,14,23,53,3.70
2017,10,14,23,54,3.70
2017,10,14,23,55,3.70
2017,10,14,23,56,3.70
2017,10,14,23,57,3.70
2017,10,14,23,58,3.70
2017,10,14,23,59,3.70
